CZ-6A DEB, 56277

Orbit data source: Space-Track

CZ-6A DEB, 56277 is space debris in SSO originally from a launch on Fri, 11 Nov 2022 UTC launched from the Taiyaun Space Center, China (TSC). Debris objects in space refer to the collection of defunct objects orbiting the Earth. Examples of debris include non-operational satellites, rocket bodies, and fragments generated from explosions, collisions, or faulty payload assembly.

Loading next visibility...
Identifier
56277, 2022-151ACV
Orbit
SSO
Country
Flag of CNCN / PRC
Related business
Manufacturer
SAST
Mission
Spacecraft
Bus & Motor
Unknown
Mass
Unknown
Launch date (UTC)
2022-11-11 (4 years ago)
Launch vehicle
Unknown
Launch site
Taiyaun Space Center, China (TSC)
Object type
Payload
Rocket body
Debris
Shape & HBR
Unknown shape, 0.1 m
Radar Cross Section
Medium (>0.1 m² and <1 m²)

Expand to show TLE details & history
Last TLE update: 3 days ago

TLE from 3 days ago
0 CZ-6A DEB
1 56277U 22151ACV 26170.49476295  .00001205  00000-0  47306-3 0  9991
2 56277  98.7170 195.4576 0045465 320.1211  39.6634 14.30658305169251
Epoch: 2026-06-19T11:52Z
TLE epoch observation values (Epoch: 2026-06-19T11:52:27.518Z)
Latitude
-0.00003°
Longitude
109.62002°
Altitude
767.429 km
Speed
7.484 km/s
True Right ascension
13h 01m 49s
True Declination
0° 00' 00"
Sunlit
Object was in daylight at epoch
Visualization orbit readout
Latitude
Unknown
Longitude
Unknown
Altitude
Unknown
Speed
Unknown
Apparent Right ascension
Unknown
Apparent Declination
Unknown
Sunlit
N/A
Visualization observer readout
Local Sidereal Time
21:41:42
Azimuth
Unknown
Elevation
Unknown
Doppler factor
Unknown
Orbital elements
Apogee altitude
819.251 km
Perigee altitude
754.101 km
Semi-major axis
7,164.813 km
Eccentricity
0.00455
Inclination
98.717°
RAAN
195.4576°
Arg. of periapsis
320.1211°
True anomaly
39.99739°
Mean anomaly
39.6634°
Eccentric anomaly
39.83025°
Mean motion
3.57879 °/min
Orbital period
100.59 mins
BSTAR
0.00047306
Loading maneuver chart data...
Computing Atmospheric mass density...
Loading historical data...
Loading historical data...
Loading historical data...
Loading historical data...
Loading historical data...
Loading historical data...
Loading historical data...

Documentation

Showing up to 5 results
|